{"data":{"norad_id":51839,"epoch":"2026-06-05T22:08:09.218688Z","epoch_age_seconds":9327057,"freshness":"OLD","line1":"1 51839U 22019R   26156.92232892  .04986191  24754-5  94850-3 0  9991","line2":"2 51839  97.3560 254.9435 0012717 264.8257  95.1587 16.31769192238342","mean_motion":16.31769192,"eccentricity":0.0012717,"inclination_deg":97.356,"raan_deg":254.9435,"arg_perigee_deg":264.8257,"mean_anomaly_deg":95.1587,"bstar":0.0009485,"rev_number":23834,"period_min":88.247774688959,"perigee_km":179.43968530637,"apogee_km":196.13946295502,"semimajor_km":6565.9265741307,"source":"CELESTRAK","updated_at":"2026-06-08T09:00:19.824997Z"}}